[[{"header":{"parameterUnit":"m.s-1","parameterCategory":1,"la1":30.2992,"la2":30.254,"lo1":-89.0895,"lo2":-89.0443,"dy":0.0025,"dx":0.0025,"nx":19,"ny":19,"refTime":"2026-05-23T21:00:00:Z","depth":0,"parameterNumber":2,"parameterNumberName":"U-component_of_WINDS"},"data":[0,0,0,1.489,1.4891,1.4936,1.4936,1.4992,1.4993,0,0,0,0,0,0,0,0,0,0,0,1.4879,1.488,1.489,1.4891,1.4936,1.4936,1.4992,1.4993,0,0,0,0,0,0,0,0,0,0,0,1.4879,1.488,1.488,1.4892,1.4936,1.4936,1.4992,1.4958,0,0,0,0,0,0,0,0,0,0,1.4915,1.4908,1.488,1.488,1.4892,1.4936,1.4936,1.4957,1.496,1.4973,0,1.4986,0,1.499,1.4997,1.4997,0,0,0,1.489,1.4905,1.4914,1.488,1.4892,1.4936,1.4915,1.4959,1.4963,1.4977,1.4987,1.4989,1.4991,1.4997,1.4997,1.5075,1.5075,0,0,1.4887,1.4889,1.4912,1.4917,1.4913,1.4914,1.4917,1.4961,1.4971,1.4987,1.499,1.4992,1.4997,1.4998,1.5074,1.5075,0,0,0,1.4881,1.4887,1.4896,1.4915,1.4923,1.4915,1.4918,1.4969,1.4972,1.4991,1.4993,1.4998,1.4998,1.5074,1.5075,1.5097,0,0,0,1.488,1.4884,1.4895,1.4896,1.4922,1.4947,1.4925,1.4968,1.4973,1.4992,1.4998,1.4999,1.5074,1.5074,1.5095,1.5107,0,0,0,1.4876,1.4883,1.489,1.4896,1.4915,1.4946,1.4952,1.497,1.4975,1.4997,1.4999,1.5073,1.5074,1.5094,1.5105,1.5126,0,0,0,1.4872,1.4912,1.4891,1.4935,1.4915,1.496,1.4951,1.4985,1.5007,1.4998,1.5074,1.5075,1.5093,1.5104,1.5124,1.5143,1.5152,0,0,1.4923,1.4918,1.4944,1.4926,1.4976,1.4953,1.5005,1.5024,1.5025,1.5057,1.5059,1.5096,1.5105,1.5126,1.52,1.5206,0,0,0,1.496,1.4979,1.4991,1.5012,1.5026,1.5038,1.5048,1.5054,1.5081,1.5043,1.511,1.5115,1.5127,1.5136,1.5141,1.515,1.5079,1.5079,1.5079,1.5036,1.5032,1.5073,1.5074,1.5094,1.5101,1.5115,1.5124,1.5118,1.5133,1.5143,1.5188,1.5199,1.5203,1.5212,1.5153,1.5153,1.5153,1.5153,1.5109,1.5133,1.5119,1.5154,1.5148,1.5177,1.5183,1.5177,1.5201,1.5182,1.5192,1.5171,1.521,1.5218,1.5155,1.5155,1.5155,1.5154,1.5154,1.5157,1.5168,1.5173,1.5198,1.5217,1.5215,1.5237,1.5233,1.5228,1.5239,1.5246,1.5246,1.5243,1.5242,1.5243,1.5243,1.5243,1.5243,1.5243,1.5206,1.521,1.523,1.5244,1.5253,1.5265,1.5269,1.5277,1.5285,1.5279,1.5279,1.5268,1.5215,1.5201,1.5245,1.5245,1.5245,1.5244,1.5244,1.528,1.5261,1.5292,1.53,1.5313,1.533,1.5322,1.5338,1.5344,1.5354,1.5339,1.5301,1.5296,1.5292,1.528,1.5342,1.5342,1.5342,1.5342,1.532,1.5316,1.5343,1.5356,1.5369,1.5363,1.5393,1.5394,1.5392,1.5395,1.5385,1.5369,1.5364,1.5361,1.5355,1.5344,1.5421,1.5421,1.5421,1.5364,1.536,1.5388,1.5385,1.5394,1.54,1.5427,1.544,1.5434,1.5424,1.5396,1.5392,1.5366,1.5358,1.535,1.534,1.532,0,0]},{"header":{"parameterUnit":"m.s-1","parameterCategory":1,"la1":30.2992,"la2":30.254,"lo1":-89.0895,"lo2":-89.0443,"dy":0.0025,"dx":0.0025,"nx":19,"ny":19,"refTime":"2026-05-23T21:00:00:Z","depth":0,"parameterNumber":3,"parameterNumberName":"V-component_of_WINDS"},"data":[0,0,0,2.4019,2.4018,2.3964,2.3963,2.3891,2.389,0,0,0,0,0,0,0,0,0,0,0,2.4036,2.4036,2.4019,2.4018,2.3964,2.3963,2.3891,2.389,0,0,0,0,0,0,0,0,0,0,0,2.4036,2.4036,2.4035,2.4018,2.3964,2.3963,2.3891,2.3933,0,0,0,0,0,0,0,0,0,0,2.3986,2.4003,2.4036,2.4035,2.4017,2.3964,2.3963,2.3935,2.393,2.3915,0,2.3904,0,2.3896,2.3886,2.3885,0,0,0,2.4017,2.4006,2.3991,2.4035,2.4017,2.3964,2.3988,2.3932,2.3927,2.3909,2.3903,2.39,2.3895,2.3885,2.3885,2.3807,2.3806,0,0,2.402,2.4026,2.3995,2.3988,2.3999,2.399,2.3986,2.3929,2.3922,2.3903,2.3899,2.3894,2.3885,2.3884,2.3807,2.3807,0,0,0,2.4029,2.4028,2.4014,2.3991,2.3982,2.3988,2.3984,2.3925,2.392,2.3898,2.3893,2.3884,2.3883,2.3807,2.3807,2.3797,0,0,0,2.4031,2.4034,2.4016,2.4019,2.3983,2.3953,2.3981,2.3924,2.3917,2.3893,2.3884,2.3883,2.3808,2.3807,2.3798,2.3791,0,0,0,2.4039,2.4035,2.4027,2.4019,2.3997,2.3954,2.3946,2.3922,2.3914,2.3885,2.3882,2.3808,2.3807,2.3799,2.3792,2.3771,0,0,0,2.4049,2.4019,2.4027,2.3991,2.3997,2.3949,2.3946,2.3909,2.3884,2.3884,2.3808,2.3807,2.3799,2.3793,2.3772,2.3753,2.3746,0,0,2.4014,2.4015,2.3993,2.3999,2.3951,2.3957,2.3907,2.3877,2.3868,2.3827,2.3825,2.3798,2.3792,2.3771,2.3709,2.3704,0,0,0,2.3984,2.3968,2.3955,2.3931,2.3909,2.3888,2.3865,2.3854,2.3819,2.3849,2.3785,2.3781,2.3769,2.3759,2.3755,2.3742,2.3803,2.3804,2.3804,2.3942,2.3933,2.3896,2.3881,2.3858,2.3835,2.3815,2.3795,2.3792,2.3777,2.3764,2.3728,2.3718,2.3714,2.3701,2.3755,2.3755,2.3755,2.3755,2.3888,2.3864,2.3862,2.3825,2.3815,2.3783,2.3759,2.3758,2.3725,2.3737,2.3726,2.3738,2.3709,2.3697,2.3754,2.3754,2.3755,2.3755,2.3755,2.3858,2.3845,2.3833,2.3798,2.3771,2.3756,2.3725,2.3717,2.3709,2.3698,2.3682,2.3682,2.368,2.3692,2.3691,2.3691,2.3691,2.3691,2.3691,2.3831,2.3818,2.3794,2.3767,2.3751,2.3728,2.3704,2.3687,2.3665,2.3662,2.3662,2.3659,2.3709,2.372,2.3689,2.3689,2.369,2.369,2.369,2.3777,2.3788,2.375,2.3734,2.3701,2.3674,2.3666,2.3631,2.3615,2.36,2.36,2.3639,2.3638,2.3642,2.3651,2.3604,2.3604,2.3604,2.3604,2.375,2.375,2.3709,2.3683,2.3656,2.3644,2.3599,2.358,2.3562,2.3551,2.3558,2.357,2.3574,2.3571,2.3576,2.3584,2.3521,2.3521,2.3521,2.3715,2.3711,2.3676,2.366,2.3634,2.3611,2.3568,2.3536,2.3517,2.3517,2.3542,2.3546,2.3566,2.3573,2.3571,2.3579,2.3595,0,0]}]]